owner,sensor,date,latitude,longitude,vertical_datum,sea_water_practical_salinity,qcFlag 
NERRS,ioos:station:NOAA.NERRS:marcewq:1,2014-04-01T00:30:00Z,28.1323,-97.0344,0.0,31.0,1111122 
NERRS,ioos:station:NOAA.NERRS:marcewq:1,2014-04-01T01:30:00Z,28.1323,-97.0344,0.0,31.0,1111122 
NERRS,ioos:station:NOAA.NERRS:marcewq:1,2014-04-01T02:30:00Z,28.1323,-97.0344,0.0,31.4,1111122 
NERRS,ioos:station:NOAA.NERRS:marcewq:1,2014-04-01T04:30:00Z,28.1323,-97.0344,0.0,31.9,1111122 
NERRS,ioos:station:NOAA.NERRS:marcewq:1,2014-04-01T05:30:00Z,28.1323,-97.0344,0.0,31.8,1111122 
NERRS,ioos:station:NOAA.NERRS:marcewq:1,2014-04-01T06:30:00Z,28.1323,-97.0344,0.0,31.6,1111122 
NERRS,ioos:station:NOAA.NERRS:marcewq:1,2014-04-01T07:30:00Z,28.1323,-97.0344,0.0,31.8,1111122 
NERRS,ioos:station:NOAA.NERRS:marcewq:1,2014-04-01T09:30:00Z,28.1323,-97.0344,0.0,31.9,1111122 
NERRS,ioos:station:NOAA.NERRS:marcewq:1,2014-04-01T10:30:00Z,28.1323,-97.0344,0.0,32.2,1111122 
NERRS,ioos:station:NOAA.NERRS:marcewq:1,2014-04-01T11:30:00Z,28.1323,-97.0344,0.0,32.2,1111122 
NERRS,ioos:station:NOAA.NERRS:marcewq:1,2014-04-01T12:30:00Z,28.1323,-97.0344,0.0,32.0,1111122 
NERRS,ioos:station:NOAA.NERRS:marcewq:1,2014-04-01T13:30:00Z,28.1323,-97.0344,0.0,31.7,1111122 
NERRS,ioos:station:NOAA.NERRS:marcewq:1,2014-04-01T14:30:00Z,28.1323,-97.0344,0.0,31.3,1111122 
NERRS,ioos:station:NOAA.NERRS:marcewq:1,2014-04-01T15:30:00Z,28.1323,-97.0344,0.0,31.4,1111122 
NERRS,ioos:station:NOAA.NERRS:marcewq:1,2014-04-01T16:30:00Z,28.1323,-97.0344,0.0,31.3,1111122 
NERRS,ioos:station:NOAA.NERRS:marcewq:1,2014-04-02T16:30:00Z,28.1323,-97.0344,0.0,31.0,1111122 
NERRS,ioos:station:NOAA.NERRS:marcewq:1,2014-04-02T17:30:00Z,28.1323,-97.0344,0.0,30.8,1111122 
NERRS,ioos:station:NOAA.NERRS:marcewq:1,2014-04-02T19:30:00Z,28.1323,-97.0344,0.0,30.6,1111122 
NERRS,ioos:station:NOAA.NERRS:marcewq:1,2014-04-02T20:30:00Z,28.1323,-97.0344,0.0,30.2,1111122 
NERRS,ioos:station:NOAA.NERRS:marcewq:1,2014-04-02T23:00:00Z,28.1323,-97.0344,0.0,30.5,1111122 
NERRS,ioos:station:NOAA.NERRS:marcewq:1,2014-04-03T00:30:00Z,28.1323,-97.0344,0.0,30.6,1111122 
NERRS,ioos:station:NOAA.NERRS:marcewq:1,2014-04-03T01:30:00Z,28.1323,-97.0344,0.0,30.5,1111122 
NERRS,ioos:station:NOAA.NERRS:marcewq:1,2014-04-03T02:30:00Z,28.1323,-97.0344,0.0,30.5,1111122 
NERRS,ioos:station:NOAA.NERRS:marcewq:1,2014-04-03T03:30:00Z,28.1323,-97.0344,0.0,30.7,1111122 
NERRS,ioos:station:NOAA.NERRS:marcewq:1,2014-04-03T04:30:00Z,28.1323,-97.0344,0.0,30.9,1111122 
NERRS,ioos:station:NOAA.NERRS:marcewq:1,2014-04-03T05:30:00Z,28.1323,-97.0344,0.0,31.1,1111122 
NERRS,ioos:station:NOAA.NERRS:marcewq:1,2014-04-03T06:30:00Z,28.1323,-97.0344,0.0,30.8,1111122 
NERRS,ioos:station:NOAA.NERRS:marcewq:1,2014-04-03T09:30:00Z,28.1323,-97.0344,0.0,30.0,1111122 
NERRS,ioos:station:NOAA.NERRS:marcewq:1,2014-04-03T10:30:00Z,28.1323,-97.0344,0.0,29.9,1111122 
NERRS,ioos:station:NOAA.NERRS:marcewq:1,2014-04-03T12:30:00Z,28.1323,-97.0344,0.0,29.8,1111122 
NERRS,ioos:station:NOAA.NERRS:marcewq:1,2014-04-03T13:30:00Z,28.1323,-97.0344,0.0,30.3,1111122 
NERRS,ioos:station:NOAA.NERRS:marcewq:1,2014-04-03T14:30:00Z,28.1323,-97.0344,0.0,30.3,1111122 
NERRS,ioos:station:NOAA.NERRS:marcewq:1,2014-04-03T15:30:00Z,28.1323,-97.0344,0.0,30.3,1111122 
NERRS,ioos:station:NOAA.NERRS:marcewq:1,2014-04-03T16:30:00Z,28.1323,-97.0344,0.0,30.4,1111122 
NERRS,ioos:station:NOAA.NERRS:marcewq:1,2014-04-03T17:30:00Z,28.1323,-97.0344,0.0,30.4,1111122 
NERRS,ioos:station:NOAA.NERRS:marcewq:1,2014-04-03T18:30:00Z,28.1323,-97.0344,0.0,30.5,1111122 
NERRS,ioos:station:NOAA.NERRS:marcewq:1,2014-04-03T19:30:00Z,28.1323,-97.0344,0.0,30.4,1111122 
NERRS,ioos:station:NOAA.NERRS:marcewq:1,2014-04-03T22:30:00Z,28.1323,-97.0344,0.0,30.6,1111122 
NERRS,ioos:station:NOAA.NERRS:marcewq:1,2014-04-03T23:30:00Z,28.1323,-97.0344,0.0,30.7,1111122 
NERRS,ioos:station:NOAA.NERRS:marcewq:1,2014-04-04T00:30:00Z,28.1323,-97.0344,0.0,30.9,1111122 
NERRS,ioos:station:NOAA.NERRS:marcewq:1,2014-04-04T01:30:00Z,28.1323,-97.0344,0.0,30.6,1111122 
NERRS,ioos:station:NOAA.NERRS:marcewq:1,2014-04-04T03:30:00Z,28.1323,-97.0344,0.0,30.6,1111122 
NERRS,ioos:station:NOAA.NERRS:marcewq:1,2014-04-04T04:30:00Z,28.1323,-97.0344,0.0,30.4,1111122 
NERRS,ioos:station:NOAA.NERRS:marcewq:1,2014-04-04T05:30:00Z,28.1323,-97.0344,0.0,30.4,1111122 
NERRS,ioos:station:NOAA.NERRS:marcewq:1,2014-04-04T07:00:00Z,28.1323,-97.0344,0.0,30.2,1111122 
NERRS,ioos:station:NOAA.NERRS:marcewq:1,2014-04-04T07:30:00Z,28.1323,-97.0344,0.0,30.5,1111122 
NERRS,ioos:station:NOAA.NERRS:marcewq:1,2014-04-04T10:30:00Z,28.1323,-97.0344,0.0,30.7,1111122 
NERRS,ioos:station:NOAA.NERRS:marcewq:1,2014-04-04T11:30:00Z,28.1323,-97.0344,0.0,31.3,1111122 
NERRS,ioos:station:NOAA.NERRS:marcewq:1,2014-04-04T12:30:00Z,28.1323,-97.0344,0.0,31.4,1111122 
NERRS,ioos:station:NOAA.NERRS:marcewq:1,2014-04-04T13:30:00Z,28.1323,-97.0344,0.0,29.9,1111122 
NERRS,ioos:station:NOAA.NERRS:marcewq:1,2014-04-04T14:30:00Z,28.1323,-97.0344,0.0,30.3,1111122 
NERRS,ioos:station:NOAA.NERRS:marcewq:1,2014-04-04T15:30:00Z,28.1323,-97.0344,0.0,30.2,1111122 
NERRS,ioos:station:NOAA.NERRS:marcewq:1,2014-04-04T16:30:00Z,28.1323,-97.0344,0.0,30.2,1111122 
NERRS,ioos:station:NOAA.NERRS:marcewq:1,2014-04-04T17:30:00Z,28.1323,-97.0344,0.0,30.2,1111122 
NERRS,ioos:station:NOAA.NERRS:marcewq:1,2014-04-04T18:30:00Z,28.1323,-97.0344,0.0,30.0,1111122 
NERRS,ioos:station:NOAA.NERRS:marcewq:1,2014-04-04T20:30:00Z,28.1323,-97.0344,0.0,30.2,1111122 
NERRS,ioos:station:NOAA.NERRS:marcewq:1,2014-04-04T21:30:00Z,28.1323,-97.0344,0.0,30.4,1111122 
NERRS,ioos:station:NOAA.NERRS:marcewq:1,2014-04-04T22:30:00Z,28.1323,-97.0344,0.0,30.6,1111122 
NERRS,ioos:station:NOAA.NERRS:marcewq:1,2014-04-04T23:30:00Z,28.1323,-97.0344,0.0,30.6,1111122 
NERRS,ioos:station:NOAA.NERRS:marcewq:1,2014-04-05T00:30:00Z,28.1323,-97.0344,0.0,30.5,1111122 
NERRS,ioos:station:NOAA.NERRS:marcewq:1,2014-04-05T01:30:00Z,28.1323,-97.0344,0.0,30.6,1111122 
NERRS,ioos:station:NOAA.NERRS:marcewq:1,2014-04-05T02:30:00Z,28.1323,-97.0344,0.0,30.6,1111122 
NERRS,ioos:station:NOAA.NERRS:marcewq:1,2014-04-05T03:30:00Z,28.1323,-97.0344,0.0,30.4,1111122 
NERRS,ioos:station:NOAA.NERRS:marcewq:1,2014-04-05T04:30:00Z,28.1323,-97.0344,0.0,30.0,1111122 
NERRS,ioos:station:NOAA.NERRS:marcewq:1,2014-04-05T05:30:00Z,28.1323,-97.0344,0.0,30.0,1111122 
NERRS,ioos:station:NOAA.NERRS:marcewq:1,2014-04-05T06:30:00Z,28.1323,-97.0344,0.0,30.6,1111122 
NERRS,ioos:station:NOAA.NERRS:marcewq:1,2014-04-05T07:30:00Z,28.1323,-97.0344,0.0,30.9,1111122 
NERRS,ioos:station:NOAA.NERRS:marcewq:1,2014-04-05T08:30:00Z,28.1323,-97.0344,0.0,30.5,1111122 
NERRS,ioos:station:NOAA.NERRS:marcewq:1,2014-04-05T09:30:00Z,28.1323,-97.0344,0.0,30.5,1111122 
NERRS,ioos:station:NOAA.NERRS:marcewq:1,2014-04-05T10:30:00Z,28.1323,-97.0344,0.0,30.8,1111122 
NERRS,ioos:station:NOAA.NERRS:marcewq:1,2014-04-05T11:30:00Z,28.1323,-97.0344,0.0,30.9,1111122 
NERRS,ioos:station:NOAA.NERRS:marcewq:1,2014-04-05T12:30:00Z,28.1323,-97.0344,0.0,30.7,1111122 
NERRS,ioos:station:NOAA.NERRS:marcewq:1,2014-04-05T13:30:00Z,28.1323,-97.0344,0.0,31.0,1111122 
NERRS,ioos:station:NOAA.NERRS:marcewq:1,2014-04-05T14:30:00Z,28.1323,-97.0344,0.0,30.9,1111122 
NERRS,ioos:station:NOAA.NERRS:marcewq:1,2014-04-05T15:30:00Z,28.1323,-97.0344,0.0,30.7,1111122 
NERRS,ioos:station:NOAA.NERRS:marcewq:1,2014-04-05T16:30:00Z,28.1323,-97.0344,0.0,30.4,1111122 
NERRS,ioos:station:NOAA.NERRS:marcewq:1,2014-04-05T17:30:00Z,28.1323,-97.0344,0.0,30.7,1111122 
NERRS,ioos:station:NOAA.NERRS:marcewq:1,2014-04-05T19:30:00Z,28.1323,-97.0344,0.0,30.8,1111122 
NERRS,ioos:station:NOAA.NERRS:marcewq:1,2014-04-05T20:30:00Z,28.1323,-97.0344,0.0,30.8,1111122 
NERRS,ioos:station:NOAA.NERRS:marcewq:1,2014-04-05T21:30:00Z,28.1323,-97.0344,0.0,30.8,1111122 
NERRS,ioos:station:NOAA.NERRS:marcewq:1,2014-04-05T22:30:00Z,28.1323,-97.0344,0.0,30.6,1111122 
NERRS,ioos:station:NOAA.NERRS:marcewq:1,2014-04-05T23:30:00Z,28.1323,-97.0344,0.0,30.4,1111122 
NERRS,ioos:station:NOAA.NERRS:marcewq:1,2014-04-06T00:30:00Z,28.1323,-97.0344,0.0,30.4,1111122 
NERRS,ioos:station:NOAA.NERRS:marcewq:1,2014-04-06T01:30:00Z,28.1323,-97.0344,0.0,30.4,1111122 
NERRS,ioos:station:NOAA.NERRS:marcewq:1,2014-04-06T02:30:00Z,28.1323,-97.0344,0.0,30.5,1111122 
NERRS,ioos:station:NOAA.NERRS:marcewq:1,2014-04-06T03:30:00Z,28.1323,-97.0344,0.0,30.5,1111122 
NERRS,ioos:station:NOAA.NERRS:marcewq:1,2014-04-06T04:30:00Z,28.1323,-97.0344,0.0,30.2,1111122 
NERRS,ioos:station:NOAA.NERRS:marcewq:1,2014-04-06T05:30:00Z,28.1323,-97.0344,0.0,30.2,1111122 
NERRS,ioos:station:NOAA.NERRS:marcewq:1,2014-04-06T06:30:00Z,28.1323,-97.0344,0.0,30.3,1111122 
NERRS,ioos:station:NOAA.NERRS:marcewq:1,2014-04-06T07:30:00Z,28.1323,-97.0344,0.0,30.3,1111122 
NERRS,ioos:station:NOAA.NERRS:marcewq:1,2014-04-06T12:30:00Z,28.1323,-97.0344,0.0,30.6,1111122 
NERRS,ioos:station:NOAA.NERRS:marcewq:1,2014-04-06T14:00:00Z,28.1323,-97.0344,0.0,30.6,1111122 
NERRS,ioos:station:NOAA.NERRS:marcewq:1,2014-04-06T14:30:00Z,28.1323,-97.0344,0.0,30.6,1111122 
NERRS,ioos:station:NOAA.NERRS:marcewq:1,2014-04-06T15:30:00Z,28.1323,-97.0344,0.0,30.6,1111122 
NERRS,ioos:station:NOAA.NERRS:marcewq:1,2014-04-06T16:30:00Z,28.1323,-97.0344,0.0,30.7,1111122 
NERRS,ioos:station:NOAA.NERRS:marcewq:1,2014-04-06T17:30:00Z,28.1323,-97.0344,0.0,30.7,1111122 
NERRS,ioos:station:NOAA.NERRS:marcewq:1,2014-04-06T18:30:00Z,28.1323,-97.0344,0.0,30.6,1111122 
NERRS,ioos:station:NOAA.NERRS:marcewq:1,2014-04-06T19:30:00Z,28.1323,-97.0344,0.0,30.6,1111122 
NERRS,ioos:station:NOAA.NERRS:marcewq:1,2014-04-06T20:30:00Z,28.1323,-97.0344,0.0,30.6,1111122 
NERRS,ioos:station:NOAA.NERRS:marcewq:1,2014-04-06T21:30:00Z,28.1323,-97.0344,0.0,30.7,1111122 
NERRS,ioos:station:NOAA.NERRS:marcewq:1,2014-04-06T22:30:00Z,28.1323,-97.0344,0.0,30.6,1111122 
NERRS,ioos:station:NOAA.NERRS:marcewq:1,2014-04-06T23:30:00Z,28.1323,-97.0344,0.0,30.6,1111122 
NERRS,ioos:station:NOAA.NERRS:marcewq:1,2014-04-07T00:30:00Z,28.1323,-97.0344,0.0,30.5,1111122 
NERRS,ioos:station:NOAA.NERRS:marcewq:1,2014-04-07T01:30:00Z,28.1323,-97.0344,0.0,30.5,1111122 
NERRS,ioos:station:NOAA.NERRS:marcewq:1,2014-04-07T02:30:00Z,28.1323,-97.0344,0.0,30.6,1111122 
NERRS,ioos:station:NOAA.NERRS:marcewq:1,2014-04-07T03:30:00Z,28.1323,-97.0344,0.0,30.6,1111122 
NERRS,ioos:station:NOAA.NERRS:marcewq:1,2014-04-07T04:30:00Z,28.1323,-97.0344,0.0,30.5,1111122 
NERRS,ioos:station:NOAA.NERRS:marcewq:1,2014-04-07T05:30:00Z,28.1323,-97.0344,0.0,30.5,1111122 
NERRS,ioos:station:NOAA.NERRS:marcewq:1,2014-04-07T06:30:00Z,28.1323,-97.0344,0.0,30.6,1111122 
NERRS,ioos:station:NOAA.NERRS:marcewq:1,2014-04-07T07:30:00Z,28.1323,-97.0344,0.0,30.7,1111122 
NERRS,ioos:station:NOAA.NERRS:marcewq:1,2014-04-07T08:30:00Z,28.1323,-97.0344,0.0,30.7,1111122 
NERRS,ioos:station:NOAA.NERRS:marcewq:1,2014-04-07T09:30:00Z,28.1323,-97.0344,0.0,30.8,1111122 
NERRS,ioos:station:NOAA.NERRS:marcewq:1,2014-04-07T10:30:00Z,28.1323,-97.0344,0.0,31.0,1111122 
NERRS,ioos:station:NOAA.NERRS:marcewq:1,2014-04-07T11:30:00Z,28.1323,-97.0344,0.0,31.1,1111122 
NERRS,ioos:station:NOAA.NERRS:marcewq:1,2014-04-07T12:30:00Z,28.1323,-97.0344,0.0,31.1,1111122 
NERRS,ioos:station:NOAA.NERRS:marcewq:1,2014-04-07T13:30:00Z,28.1323,-97.0344,0.0,31.4,1111122 
NERRS,ioos:station:NOAA.NERRS:marcewq:1,2014-04-07T14:30:00Z,28.1323,-97.0344,0.0,31.5,1111122 
NERRS,ioos:station:NOAA.NERRS:marcewq:1,2014-04-07T15:30:00Z,28.1323,-97.0344,0.0,31.6,1111122 
NERRS,ioos:station:NOAA.NERRS:marcewq:1,2014-04-07T16:30:00Z,28.1323,-97.0344,0.0,31.4,1111122 
NERRS,ioos:station:NOAA.NERRS:marcewq:1,2014-04-07T17:30:00Z,28.1323,-97.0344,0.0,31.6,1111122 
NERRS,ioos:station:NOAA.NERRS:marcewq:1,2014-04-07T20:30:00Z,28.1323,-97.0344,0.0,31.0,1111122 
NERRS,ioos:station:NOAA.NERRS:marcewq:1,2014-04-07T22:30:00Z,28.1323,-97.0344,0.0,30.7,1111122 
NERRS,ioos:station:NOAA.NERRS:marcewq:1,2014-04-07T23:30:00Z,28.1323,-97.0344,0.0,30.6,1111122 
NERRS,ioos:station:NOAA.NERRS:marcewq:1,2014-04-08T00:30:00Z,28.1323,-97.0344,0.0,30.6,1111122 
NERRS,ioos:station:NOAA.NERRS:marcewq:1,2014-04-08T01:30:00Z,28.1323,-97.0344,0.0,30.6,1111122 
NERRS,ioos:station:NOAA.NERRS:marcewq:1,2014-04-08T02:30:00Z,28.1323,-97.0344,0.0,30.6,1111122 
NERRS,ioos:station:NOAA.NERRS:marcewq:1,2014-04-08T04:30:00Z,28.1323,-97.0344,0.0,30.8,1111122 
NERRS,ioos:station:NOAA.NERRS:marcewq:1,2014-04-08T05:30:00Z,28.1323,-97.0344,0.0,31.0,1111122 
NERRS,ioos:station:NOAA.NERRS:marcewq:1,2014-04-08T08:30:00Z,28.1323,-97.0344,0.0,31.3,1111122 
NERRS,ioos:station:NOAA.NERRS:marcewq:1,2014-04-08T10:30:00Z,28.1323,-97.0344,0.0,31.5,1111122 
NERRS,ioos:station:NOAA.NERRS:marcewq:1,2014-04-08T11:30:00Z,28.1323,-97.0344,0.0,31.7,1111122 
NERRS,ioos:station:NOAA.NERRS:marcewq:1,2014-04-08T12:30:00Z,28.1323,-97.0344,0.0,31.7,1111122 
NERRS,ioos:station:NOAA.NERRS:marcewq:1,2014-04-08T13:30:00Z,28.1323,-97.0344,0.0,31.7,1111122 
NERRS,ioos:station:NOAA.NERRS:marcewq:1,2014-04-08T14:30:00Z,28.1323,-97.0344,0.0,31.8,1111122 
NERRS,ioos:station:NOAA.NERRS:marcewq:1,2014-04-08T15:30:00Z,28.1323,-97.0344,0.0,31.8,1111122 
NERRS,ioos:station:NOAA.NERRS:marcewq:1,2014-04-08T16:30:00Z,28.1323,-97.0344,0.0,31.8,1111122 
NERRS,ioos:station:NOAA.NERRS:marcewq:1,2014-04-08T17:30:00Z,28.1323,-97.0344,0.0,31.8,1111122 
NERRS,ioos:station:NOAA.NERRS:marcewq:1,2014-04-08T18:30:00Z,28.1323,-97.0344,0.0,31.7,1111122 
NERRS,ioos:station:NOAA.NERRS:marcewq:1,2014-04-08T19:30:00Z,28.1323,-97.0344,0.0,31.7,1111122 
NERRS,ioos:station:NOAA.NERRS:marcewq:1,2014-04-08T20:30:00Z,28.1323,-97.0344,0.0,31.8,1111122 
NERRS,ioos:station:NOAA.NERRS:marcewq:1,2014-04-08T21:30:00Z,28.1323,-97.0344,0.0,31.8,1111122 
NERRS,ioos:station:NOAA.NERRS:marcewq:1,2014-04-08T22:30:00Z,28.1323,-97.0344,0.0,31.8,1111122 
NERRS,ioos:station:NOAA.NERRS:marcewq:1,2014-04-08T23:30:00Z,28.1323,-97.0344,0.0,31.7,1111122 
NERRS,ioos:station:NOAA.NERRS:marcewq:1,2014-04-09T00:30:00Z,28.1323,-97.0344,0.0,31.8,1111122 
NERRS,ioos:station:NOAA.NERRS:marcewq:1,2014-04-09T01:30:00Z,28.1323,-97.0344,0.0,31.8,1111122 
NERRS,ioos:station:NOAA.NERRS:marcewq:1,2014-04-09T02:30:00Z,28.1323,-97.0344,0.0,31.8,1111122 
NERRS,ioos:station:NOAA.NERRS:marcewq:1,2014-04-09T04:30:00Z,28.1323,-97.0344,0.0,31.8,1111122 
NERRS,ioos:station:NOAA.NERRS:marcewq:1,2014-04-09T05:30:00Z,28.1323,-97.0344,0.0,31.8,1111122 
NERRS,ioos:station:NOAA.NERRS:marcewq:1,2014-04-09T06:30:00Z,28.1323,-97.0344,0.0,31.8,1111122 
NERRS,ioos:station:NOAA.NERRS:marcewq:1,2014-04-09T07:30:00Z,28.1323,-97.0344,0.0,31.8,1111122 
NERRS,ioos:station:NOAA.NERRS:marcewq:1,2014-04-09T09:30:00Z,28.1323,-97.0344,0.0,31.7,1111122 
NERRS,ioos:station:NOAA.NERRS:marcewq:1,2014-04-09T10:30:00Z,28.1323,-97.0344,0.0,31.8,1111122 
NERRS,ioos:station:NOAA.NERRS:marcewq:1,2014-04-09T12:30:00Z,28.1323,-97.0344,0.0,31.9,1111122 
NERRS,ioos:station:NOAA.NERRS:marcewq:1,2014-04-09T13:30:00Z,28.1323,-97.0344,0.0,31.9,1111122 
NERRS,ioos:station:NOAA.NERRS:marcewq:1,2014-04-09T14:30:00Z,28.1323,-97.0344,0.0,32.0,1111122 
NERRS,ioos:station:NOAA.NERRS:marcewq:1,2014-04-09T15:30:00Z,28.1323,-97.0344,0.0,32.0,1111122 
NERRS,ioos:station:NOAA.NERRS:marcewq:1,2014-04-09T16:30:00Z,28.1323,-97.0344,0.0,32.1,1111122 
NERRS,ioos:station:NOAA.NERRS:marcewq:1,2014-04-09T17:30:00Z,28.1323,-97.0344,0.0,32.2,1111122 
NERRS,ioos:station:NOAA.NERRS:marcewq:1,2014-04-09T18:30:00Z,28.1323,-97.0344,0.0,32.2,1111122 
NERRS,ioos:station:NOAA.NERRS:marcewq:1,2014-04-09T20:30:00Z,28.1323,-97.0344,0.0,32.0,1111122 
NERRS,ioos:station:NOAA.NERRS:marcewq:1,2014-04-09T21:30:00Z,28.1323,-97.0344,0.0,32.3,1111122 
NERRS,ioos:station:NOAA.NERRS:marcewq:1,2014-04-09T22:30:00Z,28.1323,-97.0344,0.0,32.0,1111122 
NERRS,ioos:station:NOAA.NERRS:marcewq:1,2014-04-09T23:00:00Z,28.1323,-97.0344,0.0,31.9,1111122 
NERRS,ioos:station:NOAA.NERRS:marcewq:1,2014-04-16T13:30:00Z,28.1323,-97.0344,0.0,31.4,1111122 
NERRS,ioos:station:NOAA.NERRS:marcewq:1,2014-04-16T14:30:00Z,28.1323,-97.0344,0.0,31.2,1111122 
NERRS,ioos:station:NOAA.NERRS:marcewq:1,2014-04-16T15:30:00Z,28.1323,-97.0344,0.0,30.9,1111122 
NERRS,ioos:station:NOAA.NERRS:marcewq:1,2014-04-16T16:30:00Z,28.1323,-97.0344,0.0,31.2,1111122 
NERRS,ioos:station:NOAA.NERRS:marcewq:1,2014-04-16T17:30:00Z,28.1323,-97.0344,0.0,31.2,1111122 
NERRS,ioos:station:NOAA.NERRS:marcewq:1,2014-04-16T18:30:00Z,28.1323,-97.0344,0.0,31.1,1111122 
NERRS,ioos:station:NOAA.NERRS:marcewq:1,2014-04-16T19:30:00Z,28.1323,-97.0344,0.0,31.1,1111122 
NERRS,ioos:station:NOAA.NERRS:marcewq:1,2014-04-16T20:30:00Z,28.1323,-97.0344,0.0,31.0,1111122 
NERRS,ioos:station:NOAA.NERRS:marcewq:1,2014-04-16T21:30:00Z,28.1323,-97.0344,0.0,31.0,1111122 
NERRS,ioos:station:NOAA.NERRS:marcewq:1,2014-04-16T22:30:00Z,28.1323,-97.0344,0.0,31.0,1111122 
NERRS,ioos:station:NOAA.NERRS:marcewq:1,2014-04-17T00:30:00Z,28.1323,-97.0344,0.0,31.0,1111122 
NERRS,ioos:station:NOAA.NERRS:marcewq:1,2014-04-17T01:30:00Z,28.1323,-97.0344,0.0,31.0,1111122 
NERRS,ioos:station:NOAA.NERRS:marcewq:1,2014-04-17T02:30:00Z,28.1323,-97.0344,0.0,31.0,1111122 
NERRS,ioos:station:NOAA.NERRS:marcewq:1,2014-04-17T03:30:00Z,28.1323,-97.0344,0.0,31.0,1111122 
NERRS,ioos:station:NOAA.NERRS:marcewq:1,2014-04-17T04:30:00Z,28.1323,-97.0344,0.0,31.1,1111122 
NERRS,ioos:station:NOAA.NERRS:marcewq:1,2014-04-17T05:30:00Z,28.1323,-97.0344,0.0,31.1,1111122 
NERRS,ioos:station:NOAA.NERRS:marcewq:1,2014-04-17T07:00:00Z,28.1323,-97.0344,0.0,31.4,1111122 
NERRS,ioos:station:NOAA.NERRS:marcewq:1,2014-04-17T07:30:00Z,28.1323,-97.0344,0.0,31.3,1111122 
NERRS,ioos:station:NOAA.NERRS:marcewq:1,2014-04-17T08:30:00Z,28.1323,-97.0344,0.0,31.2,1111122 
NERRS,ioos:station:NOAA.NERRS:marcewq:1,2014-04-17T09:30:00Z,28.1323,-97.0344,0.0,31.9,1111122 
NERRS,ioos:station:NOAA.NERRS:marcewq:1,2014-04-17T11:30:00Z,28.1323,-97.0344,0.0,31.9,1111122 
NERRS,ioos:station:NOAA.NERRS:marcewq:1,2014-04-17T12:30:00Z,28.1323,-97.0344,0.0,31.3,1111122 
NERRS,ioos:station:NOAA.NERRS:marcewq:1,2014-04-17T13:30:00Z,28.1323,-97.0344,0.0,31.1,1111122 
NERRS,ioos:station:NOAA.NERRS:marcewq:1,2014-04-17T14:30:00Z,28.1323,-97.0344,0.0,30.9,1111122 
NERRS,ioos:station:NOAA.NERRS:marcewq:1,2014-04-17T15:30:00Z,28.1323,-97.0344,0.0,30.9,1111122 
NERRS,ioos:station:NOAA.NERRS:marcewq:1,2014-04-17T16:30:00Z,28.1323,-97.0344,0.0,30.8,1111122 
NERRS,ioos:station:NOAA.NERRS:marcewq:1,2014-04-17T17:30:00Z,28.1323,-97.0344,0.0,30.7,1111122 
NERRS,ioos:station:NOAA.NERRS:marcewq:1,2014-04-17T18:30:00Z,28.1323,-97.0344,0.0,30.6,1111122 
NERRS,ioos:station:NOAA.NERRS:marcewq:1,2014-04-17T19:30:00Z,28.1323,-97.0344,0.0,30.6,1111122 
NERRS,ioos:station:NOAA.NERRS:marcewq:1,2014-04-17T20:30:00Z,28.1323,-97.0344,0.0,30.5,1111122 
NERRS,ioos:station:NOAA.NERRS:marcewq:1,2014-04-17T21:30:00Z,28.1323,-97.0344,0.0,30.5,1111122 
NERRS,ioos:station:NOAA.NERRS:marcewq:1,2014-04-17T22:30:00Z,28.1323,-97.0344,0.0,30.4,1111122 
NERRS,ioos:station:NOAA.NERRS:marcewq:1,2014-04-17T23:30:00Z,28.1323,-97.0344,0.0,30.5,1111122 
NERRS,ioos:station:NOAA.NERRS:marcewq:1,2014-04-18T00:30:00Z,28.1323,-97.0344,0.0,30.5,1111122 
NERRS,ioos:station:NOAA.NERRS:marcewq:1,2014-04-18T01:30:00Z,28.1323,-97.0344,0.0,30.5,1111122 
NERRS,ioos:station:NOAA.NERRS:marcewq:1,2014-04-18T02:30:00Z,28.1323,-97.0344,0.0,30.5,1111122 
NERRS,ioos:station:NOAA.NERRS:marcewq:1,2014-04-18T03:30:00Z,28.1323,-97.0344,0.0,30.5,1111122 
NERRS,ioos:station:NOAA.NERRS:marcewq:1,2014-04-18T04:30:00Z,28.1323,-97.0344,0.0,30.6,1111122 
NERRS,ioos:station:NOAA.NERRS:marcewq:1,2014-04-18T05:30:00Z,28.1323,-97.0344,0.0,30.4,1111122 
NERRS,ioos:station:NOAA.NERRS:marcewq:1,2014-04-18T06:30:00Z,28.1323,-97.0344,0.0,30.5,1111122 
NERRS,ioos:station:NOAA.NERRS:marcewq:1,2014-04-18T07:30:00Z,28.1323,-97.0344,0.0,30.5,1111122 
NERRS,ioos:station:NOAA.NERRS:marcewq:1,2014-04-18T08:30:00Z,28.1323,-97.0344,0.0,31.2,1111122 
NERRS,ioos:station:NOAA.NERRS:marcewq:1,2014-04-18T09:00:00Z,28.1323,-97.0344,0.0,31.5,1111122 
NERRS,ioos:station:NOAA.NERRS:marcewq:1,2014-04-18T10:30:00Z,28.1323,-97.0344,0.0,32.0,1111122 
NERRS,ioos:station:NOAA.NERRS:marcewq:1,2014-04-18T11:30:00Z,28.1323,-97.0344,0.0,32.1,1111122 
NERRS,ioos:station:NOAA.NERRS:marcewq:1,2014-04-18T12:30:00Z,28.1323,-97.0344,0.0,31.8,1111122 
NERRS,ioos:station:NOAA.NERRS:marcewq:1,2014-04-18T13:30:00Z,28.1323,-97.0344,0.0,31.6,1111122 
NERRS,ioos:station:NOAA.NERRS:marcewq:1,2014-04-18T14:30:00Z,28.1323,-97.0344,0.0,31.5,1111122 
NERRS,ioos:station:NOAA.NERRS:marcewq:1,2014-04-18T15:30:00Z,28.1323,-97.0344,0.0,31.2,1111122 
NERRS,ioos:station:NOAA.NERRS:marcewq:1,2014-04-18T16:30:00Z,28.1323,-97.0344,0.0,31.0,1111122 
NERRS,ioos:station:NOAA.NERRS:marcewq:1,2014-04-18T17:30:00Z,28.1323,-97.0344,0.0,30.9,1111122 
NERRS,ioos:station:NOAA.NERRS:marcewq:1,2014-04-18T18:30:00Z,28.1323,-97.0344,0.0,31.0,1111122 
NERRS,ioos:station:NOAA.NERRS:marcewq:1,2014-04-18T19:30:00Z,28.1323,-97.0344,0.0,31.1,1111122 
NERRS,ioos:station:NOAA.NERRS:marcewq:1,2014-04-18T20:30:00Z,28.1323,-97.0344,0.0,31.0,1111122 
NERRS,ioos:station:NOAA.NERRS:marcewq:1,2014-04-18T21:30:00Z,28.1323,-97.0344,0.0,30.9,1111122 
NERRS,ioos:station:NOAA.NERRS:marcewq:1,2014-04-18T22:30:00Z,28.1323,-97.0344,0.0,30.8,1111122 
NERRS,ioos:station:NOAA.NERRS:marcewq:1,2014-04-18T23:30:00Z,28.1323,-97.0344,0.0,30.8,1111122 
NERRS,ioos:station:NOAA.NERRS:marcewq:1,2014-04-19T01:30:00Z,28.1323,-97.0344,0.0,30.9,1111122 
NERRS,ioos:station:NOAA.NERRS:marcewq:1,2014-04-19T02:30:00Z,28.1323,-97.0344,0.0,30.9,1111122 
NERRS,ioos:station:NOAA.NERRS:marcewq:1,2014-04-19T03:30:00Z,28.1323,-97.0344,0.0,30.9,1111122 
NERRS,ioos:station:NOAA.NERRS:marcewq:1,2014-04-19T04:30:00Z,28.1323,-97.0344,0.0,31.0,1111122 
NERRS,ioos:station:NOAA.NERRS:marcewq:1,2014-04-19T05:30:00Z,28.1323,-97.0344,0.0,31.1,1111122 
NERRS,ioos:station:NOAA.NERRS:marcewq:1,2014-04-19T06:30:00Z,28.1323,-97.0344,0.0,31.4,1111122 
NERRS,ioos:station:NOAA.NERRS:marcewq:1,2014-04-19T07:30:00Z,28.1323,-97.0344,0.0,31.4,1111122 
NERRS,ioos:station:NOAA.NERRS:marcewq:1,2014-04-19T08:30:00Z,28.1323,-97.0344,0.0,31.6,1111122 
NERRS,ioos:station:NOAA.NERRS:marcewq:1,2014-04-19T09:30:00Z,28.1323,-97.0344,0.0,31.6,1111122 
NERRS,ioos:station:NOAA.NERRS:marcewq:1,2014-04-19T10:30:00Z,28.1323,-97.0344,0.0,31.5,1111122 
NERRS,ioos:station:NOAA.NERRS:marcewq:1,2014-04-19T11:30:00Z,28.1323,-97.0344,0.0,31.6,1111122 
NERRS,ioos:station:NOAA.NERRS:marcewq:1,2014-04-19T12:30:00Z,28.1323,-97.0344,0.0,32.3,1111122 
NERRS,ioos:station:NOAA.NERRS:marcewq:1,2014-04-19T13:30:00Z,28.1323,-97.0344,0.0,32.4,1111122 
NERRS,ioos:station:NOAA.NERRS:marcewq:1,2014-04-19T14:30:00Z,28.1323,-97.0344,0.0,31.7,1111122 
NERRS,ioos:station:NOAA.NERRS:marcewq:1,2014-04-19T16:30:00Z,28.1323,-97.0344,0.0,31.8,1111122 
NERRS,ioos:station:NOAA.NERRS:marcewq:1,2014-04-19T17:30:00Z,28.1323,-97.0344,0.0,31.4,1111122 
NERRS,ioos:station:NOAA.NERRS:marcewq:1,2014-04-19T18:30:00Z,28.1323,-97.0344,0.0,31.1,1111122 
NERRS,ioos:station:NOAA.NERRS:marcewq:1,2014-04-19T19:30:00Z,28.1323,-97.0344,0.0,31.0,1111122 
NERRS,ioos:station:NOAA.NERRS:marcewq:1,2014-04-19T20:30:00Z,28.1323,-97.0344,0.0,30.9,1111122 
NERRS,ioos:station:NOAA.NERRS:marcewq:1,2014-04-19T21:30:00Z,28.1323,-97.0344,0.0,30.8,1111122 
NERRS,ioos:station:NOAA.NERRS:marcewq:1,2014-04-19T22:30:00Z,28.1323,-97.0344,0.0,30.7,1111122 
NERRS,ioos:station:NOAA.NERRS:marcewq:1,2014-04-19T23:30:00Z,28.1323,-97.0344,0.0,30.7,1111122 
NERRS,ioos:station:NOAA.NERRS:marcewq:1,2014-04-20T00:30:00Z,28.1323,-97.0344,0.0,30.7,1111122 
NERRS,ioos:station:NOAA.NERRS:marcewq:1,2014-04-20T01:30:00Z,28.1323,-97.0344,0.0,30.7,1111122 
NERRS,ioos:station:NOAA.NERRS:marcewq:1,2014-04-20T02:30:00Z,28.1323,-97.0344,0.0,30.8,1111122 
NERRS,ioos:station:NOAA.NERRS:marcewq:1,2014-04-20T03:30:00Z,28.1323,-97.0344,0.0,30.9,1111122 
NERRS,ioos:station:NOAA.NERRS:marcewq:1,2014-04-20T04:30:00Z,28.1323,-97.0344,0.0,31.0,1111122 
NERRS,ioos:station:NOAA.NERRS:marcewq:1,2014-04-20T05:30:00Z,28.1323,-97.0344,0.0,31.0,1111122 
NERRS,ioos:station:NOAA.NERRS:marcewq:1,2014-04-20T06:30:00Z,28.1323,-97.0344,0.0,31.1,1111122 